Flag for United Kingdom

Past Weather in Manchester, England, United Kingdom — Yesterday and Last 2 Weeks

Now
57 °F

Fog.


Feels Like: 57 °F
Forecast: 60 / 48 °F
Wind: 3 mph from West

Location: Manchester Airport
Current Time: Sep 28, 2020 at 8:44:11 pm
Latest Report: Sep 28, 2020 at 7:50 pm
Visibility: 1 mi
Pressure29.92 "Hg
Humidity: 100%
Dew Point: 57 °F
Location of ManchesterLocation

Past Weather in Manchester — Graph

°F

Manchester Temperature Yesterday

Maximum temperature yesterday: 57 °F (at 2:20 pm)
Minimum temperature yesterday: 39 °F (at 11:20 pm)
Average temperature yesterday: 48 °F

High & Low Weather Summary for the Past Weeks

 TemperatureHumidityPressure
High81 °F (Sep 15, 2:50 pm)100% (Sep 14, 5:20 am)30.48 "Hg (Sep 14, 5:20 am)
Low34 °F (Sep 28, 6:20 am)44% (Sep 14, 4:20 pm)29.30 "Hg (Sep 24, 7:20 am)
Average55 °F77%29.99 "Hg
* Reported Sep 13 7:20 pm — Sep 28 7:20 pm, Manchester. Weather by CustomWeather, © 2020

Note: Actual official high and low records may vary slightly from our data, if they occured in-between our weather recording intervals... More about our weather records

Manchester Weather History for the Previous 24 Hours

Scroll right to see more
 ConditionsComfort  
Time TempWeatherWind HumidityBarometerVisibility
7:20 pm
Mon, Sep 28
57 °FDrizzle. Mostly cloudy.3 mph100%29.92 "Hg1 mi
6:50 pm57 °FDrizzle. Mostly cloudy.2 mph100%29.89 "Hg1 mi
6:20 pm59 °FMostly cloudy.3 mph88%29.89 "HgN/A
5:50 pm61 °FMostly cloudy.1 mph77%29.89 "HgN/A
5:20 pm61 °FMore clouds than sun.1 mph77%29.86 "HgN/A
4:50 pm61 °FPartly sunny.3 mph77%29.86 "HgN/A
4:20 pm63 °FOvercast.6 mph68%29.86 "HgN/A
3:50 pm61 °FPartly sunny.3 mph72%29.86 "HgN/A
3:20 pm61 °FScattered clouds.3 mph68%29.89 "HgN/A
2:50 pm61 °FCool.3 mph68%29.89 "HgN/A
2:20 pm59 °FCool.3 mph68%29.89 "HgN/A
1:50 pm57 °FPassing clouds.2 mph67%29.89 "HgN/A
12:50 pm55 °FOvercast.3 mph72%29.92 "HgN/A
12:20 pm54 °FPartly sunny.2 mph72%29.92 "HgN/A
11:50 am52 °FCool.2 mph77%29.92 "HgN/A
11:20 am50 °FScattered clouds.2 mph82%29.92 "HgN/A
10:50 am48 °FPartly sunny.2 mph87%29.92 "HgN/A
10:20 am46 °FCool.2 mph93%29.92 "HgN/A
9:50 am45 °FQuite cool.2 mph93%29.92 "HgN/A
9:20 am43 °FQuite cool.2 mph93%29.92 "HgN/A
8:50 am41 °FQuite cool.1 mph100%29.92 "HgN/A
8:20 am37 °FChilly.2 mph100%29.92 "HgN/A
7:50 am36 °FChilly.2 mph100%29.92 "HgN/A
7:20 am36 °FChilly.2 mph93%29.92 "HgN/A
6:50 am34 °FChilly.3 mph93%29.92 "HgN/A
6:20 am34 °FChilly.1 mph100%29.92 "HgN/A
5:50 am36 °FChilly.1 mph100%29.92 "Hg6 mi
5:20 am36 °FChilly.2 mph93%29.92 "HgN/A
4:50 am36 °FChilly.2 mph100%29.92 "HgN/A
4:20 am36 °FChilly.3 mph93%29.95 "HgN/A
3:50 am37 °FClear.2 mph93%29.95 "Hg10 mi
3:20 am36 °FPassing clouds.5 mph93%29.95 "HgN/A
2:50 am36 °FChilly.3 mph100%29.98 "HgN/A
2:20 am37 °FChilly.2 mph93%29.98 "HgN/A
1:50 am37 °FChilly.1 mph93%29.98 "HgN/A
1:20 am37 °FChilly.1 mph93%29.98 "HgN/A
12:50 am37 °FChilly.3 mph100%29.98 "HgN/A
12:20 am37 °FChilly.2 mph93%29.98 "HgN/A
11:50 pm
Sun, Sep 27
39 °FChilly.3 mph93%29.98 "HgN/A
11:20 pm39 °FChilly.2 mph93%29.98 "HgN/A
10:50 pm41 °FQuite cool.1 mph93%30.01 "HgN/A
10:20 pm41 °FQuite cool.2 mph87%30.01 "HgN/A
9:50 pm43 °FQuite cool.2 mph81%29.98 "HgN/A
9:20 pm45 °FQuite cool.1 mph76%29.98 "HgN/A
8:50 pm46 °FCool.5 mph71%29.98 "HgN/A
8:20 pm48 °FCool.6 mph71%29.98 "HgN/A
Weather by CustomWeather, © 2020

See weather overview